Flag for Canada Weather past 2 weeks in Sault Ste. Marie, Ontario, Canada

Now
1 °F

Clear.


Feels Like: -19 °F
Forecast: -13 / 10 °F
Wind: 17 mph from Northwest

Location: Sault Ste Marie

Current Time: Mar 4, 2015 at 7:59:41 PM

Latest Report: Mar 4, 2015 at 7:00 PM


Visibility: 15 mi

Pressure: 30.16 "Hg

Humidity: 71%

Dew point: -6 °F

Location of Sault Ste. MarieLocation

Historic Weather in Sault Ste. Marie — Graph

°F

Sault Ste. Marie temperature yesterday

Maximum temperature yesterday: 25 °F (at 11:00 PM)
Minimum temperature yesterday: -2 °F (at 12:00 AM)
Average temperature yesterday: 13 °F

Past Weeks' High & Low Weather Summary

 TemperatureHumidityPressure
High25 °F (Mar 1, 1:00 PM)93% (Mar 1, 10:00 PM)30.65 "Hg (Mar 1, 10:00 PM)
Low-31 °F (Feb 20, 4:00 AM)39% (Feb 28, 2:00 PM)29.41 "Hg (Feb 24, 1:00 PM)
Average2 °F76%30.15 "Hg
* Reported Feb 17 5:00 PM — Mar 4 5:00 PM, Sault Ste. Marie, Weather by CustomWeather, © 2015

Note: Actual official high and low records may vary slightly from our data, if they occured in-between our weather recording intervals... More about our weather records

Advertising

Sault Ste. Marie weather history for previous 24 hours

 ConditionsComfort  
Time TempWeatherWind HumidityBarometerVisibility
5:00 PM
Wed, Mar 4
3 °FBroken clouds.22 mph78%30.09 "Hg4 mi
4:00 PM5 °FScattered clouds.23 mph72%30.06 "Hg6 mi
3:00 PM7 °FBroken clouds.24 mph78%30.03 "Hg6 mi
2:00 PM7 °FScattered clouds.22 mph78%30.01 "Hg8 mi
1:00 PM7 °FBroken clouds.21 mph78%29.99 "Hg5 mi
12:45 PM9 °FBroken clouds.22 mph72%29.99 "Hg3 mi
12:03 PM7 °FPartly sunny.20 mph78%29.98 "Hg3 mi
11:00 AM9 °FBroken clouds.20 mph72%29.96 "Hg6 mi
10:00 AM7 °FMore clouds than sun.20 mph78%29.95 "Hg6 mi
9:00 AM7 °FLight snow. Broken clouds.17 mph85%29.92 "Hg6 mi
8:51 AM9 °FLight snow. Broken clouds.18 mph72%29.91 "Hg6 mi
8:00 AM7 °FBroken clouds.13 mph85%29.88 "Hg15 mi
7:00 AM7 °FPartly cloudy.9 mph85%29.86 "Hg15 mi
6:51 AM7 °FPassing clouds.9 mph85%29.86 "Hg15 mi
6:00 AM9 °FLight snow. Partly cloudy.14 mph85%29.84 "Hg15 mi
5:00 AM12 °FLight snow. Partly cloudy.22 mph79%29.80 "Hg12 mi
4:00 AM14 °FSnow flurries. Passing clouds.18 mph79%29.76 "Hg12 mi
3:00 AM16 °FLight snow. Mostly cloudy.20 mph93%29.74 "Hg6 mi
2:00 AM18 °FLight snow. Mostly cloudy.23 mph86%29.71 "Hg3 mi
1:00 AM19 °FLight snow. Mostly cloudy.21 mph93%29.68 "Hg2 mi
12:48 AM19 °FLight snow. Mostly cloudy.26 mph86%29.67 "Hg2 mi
12:00 AM23 °FLight snow. Mostly cloudy.22 mph86%29.64 "Hg2 mi
11:54 PM
Tue, Mar 3
23 °FLight snow. Mostly cloudy.24 mph86%29.63 "Hg2 mi
11:00 PM25 °FLight snow. Mostly cloudy.16 mph86%29.60 "Hg10 mi
10:00 PM19 °FLight snow. Mostly cloudy.9 mph93%29.57 "Hg10 mi
9:00 PM19 °FLight snow. Overcast.7 mph93%29.57 "Hg12 mi
8:00 PM21 °FLight snow. Overcast.3 mph93%29.55 "Hg12 mi
7:00 PM21 °FLight snow. Overcast.2 mph93%29.52 "Hg12 mi
Weather by CustomWeather, © 2015

See weather overviewHow to use our weather pages